SCP
1 0 0 0 0 0 0 0 0 0 0 0 0 0 0 0 0 0 0 0 0 0 0 0 0 0 0 0 1 1 1 1 1 1 1 1 1 1 1 1 1 1 1
0 0 0 0 0 0 0 0 0 0 0 0 0 0 0 0 0 0 0 0 0 0 0 0 0 0 0 0 0 0 0 1 1 1 1 1 1 1 1 1 1 1 1
0 0 0 0 0 0 0 0 0 0 0 0 0 0 0 0 0 0 0 0 0 0 0 0 0 0 0 0 0 0 0 0 0 0 0 0 0 1 1 1 1 1 2
0 0 0 0 0 0 0 0 0 0 0 0 0 0 0 0 0 0 0 0 0 0 0 0 0 0 0 0 0 0 0 0 0 0 0 0 0 0 0 0 1 1 1
0 0 0 0 0 0 0 0 0 0 0 0 0 0 0 0 0 0 0 0 0 0 0 0 0 0 0 0 0 0 0 0 0 0 0 0 0 0 0 0 0 0 0
0 0 0 0 0 0 1 1 0 0 0 0 0 0 0 0 0 0 0 0 0 0 0 0 0 0 0 0 0 0 0 0 0 0 0 0 0 0 0 0 0 0 0
0 0 0 0 0 0 0 0 0 0 0 0 0 0 0 0 0 0 0 0 0 0 0 0 0 0 0 0 0 0 0 0 0 0 0 0 0 0 0 0 0 0 0
0 0 0 0 0 0 0 0 0 0 0 0 0 0 0 0 0 0 0 0 0 0 0 0 0 0 0 0 0 0 0 0 0 0 0 0 0 0 0 0 0 0 0
0 0 0 0 0 0 0 0 0 0 0 0 0 0 0 0 0 0 0 0 0 0 0 0 0 0 0 0 0 0 0 0 0 0 0 0 0 0 0 0 0 0 0
0 0 0 0 0 0 0 0 0 0 0 0 0 0 0 0 0 0 0 0 0 0 0 0 0 0 0 0 0 0 0 0 0 0 0 0 0 0 0 0 0 0 0
0 0 0 0 0 0 0 0 0 0 0 0 0 0 0 0 0 0 0 0 0 0 0 0 0 0 0 0 0 0 0 0 0 0 0 0 0 0 0 0 0 0 0
0 0 0 0 0 0 0 0 0 0 0 0 0 0 0 0 0 0 0 0 0 0 0 0 0 0 0 0 0 0 0 0 0 0 0 0 0 0 0 0 0 0 0
0 0 0 0 0 0 0 0 0 0 0 0 0 0 0 0 0 0 0 0 0 0 0 0 0 0 0 0 0 0 0 0 0 0 0 0 0 0 0 0 0 0 0
0 0 0 0 0 0 0 0 0 0 0 0 0 0 0 0 0 0 0 0 0 0 0 0 0 0 0 0 0 0 0 0 0 0 0 0 0 0 0 0 0 0 0
0 0 0 0 0 0 0 0 0 0 0 0 0 0 0 0 0 0 0 0 0 0 0 0 0 0 0 0 0 0 0 0 0 0 0 0 0 0 0 0 0 0 0
0 0 0 0 0 0 0 0 0 0 0 0 0 0 0 0 0 0 0 0 0 0 0 0 0 0 0 0 0 0 0 0 0 0 0 0 0 0 0 0 0 0 0
0 0 0 0 0 0 0 0 0 0 0 0 0 0 0 0 0 0 0 0 0 0 0 0 0 0 0 0 0 0 0 0 0 0 0 0 0 0 0 0 0 0 0
0 0 0 0 0 0 0 0 0 0 0 0 0 0 0 0 0 0 0 0 0 0 0 0 0 0 0 0 0 0 0 0 0 0 0 0 0 0 0 0 0 0 0
0 0 0 0 0 0 0 0 0 0 0 0 0 0 0 0 0 0 0 0 0 0 0 0 0 0 0 0 0 0 0 0 0 0 0 0 0 0 0 0 0 0 0
0 0 0 0 0 0 0 0 0 0 0 0 0 0 0 0 0 0 0 0 0 0 0 0 0 0 0 0 0 0 0 0 0 0 0 0 0 0 0 0 0 0 0
0 0 0 0 0 0 0 0 0 0 0 0 0 0 0 0 0 0 0 0 0 0 0 0 0 0 0 0 0 0 0 0 0 0 0 0 0 0 0 0 0 0 0
0 0 0 0 0 0 0 0 0 0 0 0 0 0 0 0 0 0 0 0 0 0 0 0 0 0 0 0 0 0 0 0 0 0 0 0 0 0 0 0 0 0 0
0 0 0 0 0 0 0 0 0 0 0 0 0 0 0 0 0 0 0 0 0 0 0 0 0 0 0 0 0 0 0 0 0 0 0 0 0 0 0 0 0 0 0
0 0 0 0 0 0 0 0 0 0 0 0 0 0 0 0 0 0 0 0 0 0 0 0 0 0 0 0 0 0 0 0 0 0 0 0 0 0 0 0 0 0 0
0 0 0 0 0 0 0 0 0 0 0 0 0 0 0 0 0 0 0 0 0 0 0 0 0 0 0 0 0 0 0 0 0 0 0 0 0 0 0 0 0 0 0
0 0 0 0 0 0 0 0 0 0 0 0 0 0 0 0 0 0 0 0 0 0 0 0 0 0 0 0 0 0 0 0 0 0 0 0 0 0 0 0 0 0 0
Wind_Speed
3 3 3 3 3 3 3 3 3 3 2 1 1 1 1 1 1 1 2 2 2 2 1 1 1 1 1 2 2 2 2 2 2 2 4 5 7 8 7 7 7 9 10
3 4 4 3 4 3 4 3 3 2 2 1 1 1 1 0 0 1 2 2 2 2 2 1 2 2 2 3 3 2 1 2 1 1 2 4 4 3 5 5 6 7 7
6 6 5 5 5 4 4 4 3 2 2 2 2 2 2 2 2 2 2 2 3 3 2 2 2 2 2 3 3 3 3 2 2 3 2 2 3 4 3 3 4 5 5
6 6 6 6 6 5 4 3 3 2 2 2 2 2 1 1 2 1 2 4 3 3 3 3 3 3 2 3 3 3 3 3 3 2 3 4 3 3 4 3 3 4 6
7 7 7 6 4 4 4 4 3 3 2 1 2 1 1 2 2 2 3 4 4 4 4 3 3 3 3 3 4 3 3 3 3 3 2 3 3 4 4 5 4 4 4
5 5 4 3 3 2 3 3 3 2 2 1 1 2 3 3 3 4 4 4 3 4 4 4 3 3 3 4 4 3 4 4 4 4 3 3 2 3 3 4 5 5 4
4 4 4 3 3 3 2 2 2 2 1 1 2 2 3 3 4 5 4 4 3 3 5 4 3 4 4 4 4 4 4 4 5 5 4 4 4 3 3 4 4 5 4
2 3 4 4 3 3 2 2 2 1 1 1 3 3 3 3 3 5 5 5 4 5 6 5 5 5 5 5 4 4 5 4 5 6 5 4 4 4 4 3 3 4 4
3 4 3 3 3 2 2 2 2 2 2 2 3 3 4 4 5 5 4 4 5 5 6 6 6 6 6 6 5 4 5 5 5 6 6 5 4 4 4 4 3 3 4
3 3 2 2 1 2 1 1 2 2 3 3 3 3 4 5 5 5 6 6 6 6 6 7 6 6 6 6 5 5 6 6 6 5 6 6 5 4 4 4 4 4 4
5 3 2 1 1 1 1 1 2 3 3 4 4 4 5 5 5 5 6 6 6 6 7 7 7 7 7 7 6 7 7 7 7 6 7 7 6 5 4 4 4 4 4
3 2 1 1 1 2 2 3 3 4 5 4 4 5 5 5 5 6 7 6 7 7 7 7 8 8 8 7 7 8 8 8 8 8 8 8 6 7 5 5 6 5 5
3 2 1 2 3 3 4 4 4 5 5 4 5 5 6 6 6 7 7 7 7 8 8 7 8 9 9 8 8 8 9 9 9 9 9 9 8 8 6 6 6 5 5
4 3 3 3 4 4 4 5 5 5 5 4 5 6 7 6 7 7 7 8 7 8 8 8 9 9 9 9 9 9 9 9 9 9 9 9 9 9 9 7 8 7 6
5 5 5 4 4 5 5 5 5 5 5 5 6 7 7 6 7 7 8 8 8 9 8 8 9 9 8 8 9 9 9 9 9 9 9 10 12 13 10 8 8 8 6
7 6 6 5 5 5 5 5 5 5 4 5 7 7 6 7 7 8 8 8 9 9 8 9 9 9 8 10 13 11 9 9 9 10 9 10 12 14 15 16 14 12 9
7 7 7 6 6 6 5 6 6 5 5 6 7 7 7 7 8 8 8 9 9 8 9 9 9 10 11 14 15 15 10 10 10 10 9 9 9 11 10 12 15 15 16
7 7 6 6 5 5 4 5 5 5 5 6 7 7 7 8 8 8 9 9 8 8 8 9 9 9 11 13 13 14 11 9 10 11 11 11 11 10 9 9 10 10 11
8 7 7 6 5 5 5 4 5 5 6 7 7 7 7 8 9 9 9 8 8 9 8 8 9 9 11 12 12 11 7 8 10 10 10 11 12 13 13 10 10 9 9
6 6 5 4 5 5 4 4 6 5 7 7 7 7 7 8 9 10 9 8 7 9 9 9 9 9 10 11 12 10 5 7 8 8 9 13 13 13 13 11 10 10 9
7 6 5 5 6 5 3 5 6 7 7 6 7 7 7 8 9 8 7 8 8 8 8 9 9 8 9 10 11 9 5 6 7 7 7 7 11 14 14 12 10 11 8
7 7 6 6 6 4 4 6 7 7 6 6 7 8 8 7 7 7 8 7 7 7 8 8 8 6 6 7 8 9 8 8 7 7 6 6 10 12 13 11 10 11 9
8 6 7 7 6 5 6 7 7 6 5 5 7 7 8 7 7 7 8 7 6 5 6 6 7 7 5 5 8 9 9 9 6 6 8 8 10 9 9 11 12 10 7
7 6 6 6 6 6 6 8 7 5 5 6 7 7 7 8 7 6 5 6 6 6 6 6 7 7 6 5 4 4 4 6 5 4 5 6 6 6 5 5 7 7 7
6 6 7 8 8 6 6 6 6 4 5 6 6 7 6 6 7 7 6 6 7 6 7 7 6 7 7 6 6 5 5 4 4 4 2 2 2 3 3 4 4 5 6
6 6 7 8 8 6 7 6 5 4 5 5 6 5 5 6 6 6 8 8 8 10 10 11 10 7 9 10 9 8 7 7 6 3 2 2 2 3 4 4 5 5 6
Wind_Direction
191 188 184 169 150 147 147 152 151 152 136 121 120 102 63 20 23 24 33 28 15 4 349 319 312 298 268 267 267 262 274 274 272 289 293 279 257 248 244 239 237 238 237
208 207 200 194 189 186 183 176 176 171 165 145 139 138 129 48 342 349 6 9 2 346 337 320 299 289 278 282 267 236 249 267 246 249 301 310 312 290 252 241 237 240 238
213 216 212 210 205 207 204 190 189 183 172 143 106 73 50 18 358 348 334 333 340 333 327 313 294 285 264 265 262 232 222 244 260 223 232 275 291 312 294 261 249 246 241
221 220 219 219 215 215 200 194 191 193 189 159 147 154 172 241 254 267 292 309 314 312 308 301 295 286 272 264 262 237 218 217 243 254 235 237 251 281 307 303 278 267 257
225 225 222 221 215 198 189 189 186 202 204 184 170 176 225 242 273 292 299 303 306 305 297 290 287 282 273 266 262 257 233 220 225 228 239 250 250 243 260 288 302 297 270
233 229 223 210 208 187 180 176 181 212 216 210 209 218 246 264 283 289 291 291 293 296 291 286 274 271 265 264 261 252 243 235 234 233 228 228 239 248 251 272 292 296 288
228 218 207 195 189 177 174 165 174 225 252 259 267 259 257 258 258 267 269 274 280 281 284 288 276 269 260 262 260 254 250 240 237 238 236 233 237 241 246 263 279 285 289
213 201 194 183 180 176 165 159 174 224 267 272 275 274 264 252 254 256 256 259 259 265 272 276 271 269 266 265 258 255 255 245 241 245 242 241 244 238 236 241 267 290 288
196 187 177 166 164 172 182 183 187 226 263 266 272 280 275 262 264 269 264 262 262 269 270 269 270 269 267 262 255 252 258 255 249 247 245 243 246 241 241 241 240 256 285
189 179 164 158 171 193 206 203 212 238 260 270 272 278 278 275 272 275 274 271 271 272 278 277 272 270 268 263 255 254 256 255 254 247 245 245 245 244 240 239 241 238 247
192 187 179 175 198 230 244 259 263 265 273 275 277 281 281 282 281 275 274 275 277 277 275 274 274 272 268 264 256 254 255 253 256 254 247 249 245 243 243 238 240 240 238
180 178 186 203 248 268 277 275 273 270 270 273 280 279 281 286 284 280 278 277 277 277 274 273 274 272 269 261 255 257 257 250 253 253 248 251 247 239 239 236 238 239 237
174 180 214 246 262 273 278 279 277 273 275 279 284 287 287 285 282 281 281 280 278 279 278 272 269 269 268 265 260 254 255 252 251 250 247 248 244 242 237 233 235 236 239
192 206 235 253 265 273 275 277 280 277 279 282 284 283 282 280 280 282 282 280 278 278 276 273 268 266 266 265 264 260 256 254 253 250 247 246 241 240 238 234 233 232 232
212 222 232 248 264 275 279 276 278 281 281 283 282 278 281 283 284 284 284 284 282 281 276 277 275 270 266 261 257 255 256 254 255 254 249 246 243 240 236 230 226 223 223
226 233 238 246 254 261 269 275 275 279 283 279 279 283 287 288 286 286 287 287 286 285 282 278 277 275 270 267 264 263 260 256 254 255 253 250 253 251 245 237 230 218 216
227 231 235 237 244 251 254 260 267 280 283 278 281 285 286 287 287 290 292 289 287 285 285 283 279 275 273 270 270 270 265 256 253 251 251 252 248 238 239 241 238 231 224
224 230 231 235 242 245 250 259 269 276 278 281 283 285 286 287 290 291 289 287 285 285 284 283 281 278 277 275 273 273 270 260 255 251 246 245 247 242 232 236 237 234 230
214 219 220 221 233 245 250 259 273 277 279 279 280 282 284 288 292 293 291 289 289 290 287 283 282 280 281 277 275 274 269 261 259 256 249 242 242 238 228 229 235 236 236
215 216 216 217 235 246 238 247 265 274 273 273 276 280 282 283 287 287 287 288 287 287 289 287 284 279 279 280 280 279 266 263 263 261 254 244 238 235 225 224 226 229 229
213 210 207 217 232 235 221 242 259 263 263 272 278 282 283 282 282 282 284 289 291 292 291 291 290 285 279 283 283 282 265 260 264 263 258 248 235 232 228 221 222 223 215
212 204 206 228 237 226 217 243 256 258 267 274 279 284 287 287 289 288 292 292 291 295 296 296 297 291 284 281 285 286 277 265 261 262 258 250 241 236 232 224 223 218 208
210 202 205 228 243 231 215 236 252 261 272 277 281 287 293 291 286 286 293 298 295 293 295 294 295 297 295 288 285 289 291 288 270 266 262 253 247 241 234 227 217 207 201
210 202 201 222 241 239 228 234 252 263 266 275 284 291 296 300 300 293 286 289 292 295 296 294 293 295 295 292 300 301 301 300 292 283 282 271 253 234 225 215 208 203 198
205 195 202 219 235 241 244 246 249 250 260 274 284 291 290 292 300 300 287 281 273 264 274 283 281 287 292 290 294 296 294 294 291 297 281 262 237 212 206 200 194 190 190
199 204 213 222 235 240 248 253 247 236 250 274 285 288 293 296 298 303 307 288 274 280 270 258 258 266 261 279 291 295 295 288 279 265 260 256 236 221 209 201 197 193 193